www.pogodaiklimat.ru

Погода и климат >> Архив погоды >> Индия >> Гуджарат >> Бхудж


ПОГОДА в Бхудже

  • Прогноз погоды в Бхудже
  • Монитор погоды в Бхудже

АРХИВ ПОГОДЫ в Бхудже

Время (UTC), дата Ветер
(напр.,м/с)
 
Видим.   Явления Облачность Т
(С)
Тd
(С)
f
(%)
Тe
(С)
Тes
(С)
Комфортность P
(гПа)
Po
(гПа)
Тmin
(С)
Tmax
(С)
R
(мм)
R24
(мм)
S
(см)
06 9.01 СВ 2 4000 м 3/0
[Ci fib]
+23.2 +7.1 35 +24 +34 комфорт 1019.5 1020.0
12 9.01 СВ 2 4000 м ясно +26.2 +6.9 29 +26 +26 жарко 1015.3 1015.0 +28.1
15 9.01 СВ 1 4000 м ясно +21.0 +5.3 36 +23 +23 комфорт 1016.1 1016.0
18 9.01 штиль 0 4000 м ясно +17.6 +3.5 39 +18 +18 1016.5 1017.0
21 9.01 штиль 0 4000 м ясно +14.6 +6.3 57 +14 +14 1016.3 1016.0
00 10.01 штиль 0 4000 м ясно +13.0 +7.7 70 +13 +13 1016.0 1016.0
03 10.01 штиль 0 4000 м 5/0
[Ci fib]
+14.4 +6.6 59 +14 +15 1017.3 1017.0 +13.3
06 10.01 штиль 0 4000 м 3/0
[Ci fib]
+24.4 +8.9 37 +25 +37 комфорт 1017.5 1018.0
09 10.01 штиль 0 4000 м 4/0
[Ci fib]
+29.0 +8.2 27 +28 +40 жарко 1013.9 1014.0
12 10.01 штиль 0 4000 м 4/0
[Ci fib]
+29.8 +7.9 25 +29 +29 жарко 1014.4 1014.0 +31.0
15 10.01 штиль 0 4000 м ясно +23.0 +9.3 42 +25 +25 комфорт 1014.9 1015.0
18 10.01 штиль 0 4000 м ясно +19.0 +8.2 49 +19 +19 1015.4 1015.0
21 10.01 штиль 0 4000 м ясно +18.0 +8.8 55 +18 +18 1015.1 1015.0
00 11.01 штиль 0 4000 м ясно +16.0 +8.1 59 +16 +16 1014.9 1015.0
03 11.01 штиль 0 2000 м мгла 4/0
[Ci fib]
+18.0 +17.0 94 +18 +19 1015.7 1016.0 +16.0
06 11.01 штиль 0 4000 м 5/5 600 м
[Sc]
+25.4 +18.5 66 +30 +37 душно 1016.4 1016.0
09 11.01 С 2 4000 м 6/6 600 м
[Sc]
+28.6 +15.2 44 +31 +35 жарко 1015.1 1015.0
12 11.01 штиль 0 4000 м 5/5 600 м
[Sc]
+27.6 +15.1 46 +30 +31 жарко 1014.0 1014.0 +30.0
15 11.01 штиль 0 4000 м 4/4 600 м
[Sc]
+23.2 +18.8 76 +29 +29 душно 1015.3 1015.0
18 11.01 штиль 0 4000 м 3/3 600 м
[Sc]
+21.0 +17.8 82 +25 +25 комфорт 1015.5 1016.0
21 11.01 штиль 0 4000 м 4/4 600 м
[Sc]
+19.4 +17.8 90 +21 +21 комфорт 1015.4 1015.0
00 12.01 штиль 0 4000 м ясно +17.6 +16.8 95 +18 +18 1015.3 1015.0
03 12.01 штиль 0 4000 м ясно +17.2 +15.1 87 +17 +19 1017.0 1017.0 +16.4
06 12.01 СВ 2 4000 м ясно +24.2 +14.5 55 +27 +37 жарко 1017.3 1017.0
09 12.01 СЗ 2 4000 м 4/4 600 м
[Sc]
+28.0 +14.0 42 +30 +35 жарко 1014.9 1015.0
12 12.01 СЗ 2 4000 м ясно +27.0 +13.1 42 +29 +29 жарко 1013.9 1014.0 +30.0
15 12.01 штиль 0 4000 м ясно +24.0 +12.5 49 +26 +26 жарко 1015.3 1015.0
18 12.01 штиль 0 4000 м ясно +20.6 +10.3 52 +22 +22 комфорт 1016.4 1016.0
21 12.01 штиль 0 4000 м ясно +18.4 +10.2 59 +19 +19 1016.2 1016.0
00 13.01 штиль 0 4000 м ясно +17.0 +11.5 70 +17 +17 1016.3 1016.0
03 13.01 штиль 0 4000 м ясно +16.0 +12.0 77 +16 +17 1018.0 1018.0 +15.2
06 13.01 штиль 0 4000 м 5/0
[Ci fib]
+23.6 +13.3 52 +26 +38 жарко 1019.3 1019.0
09 13.01 СВ 2 4000 м ясно +27.4 +11.8 38 +29 +38 жарко 1016.4 1016.0
12 13.01 СВ 2 4000 м ясно +26.0 +11.2 40 +27 +28 жарко 1015.6 1016.0 +28.0
15 13.01 штиль 0 4000 м ясно +22.0 -3.2 18 +21 +21 комфорт 1018.3 1018.0
18 13.01 СВ 2 4000 м ясно +19.2 -0.5 26 +20 +20 1019.4 1019.0
21 13.01 штиль 0 4000 м ясно +17.8 +1.2 33 +18 +18 1019.1 1019.0
00 14.01 СВ 2 4000 м ясно +16.6 +1.9 37 +17 +17 1018.9 1019.0
03 14.01 штиль 0 2000 м мгла ясно +14.6 +10.4 76 +14 +16 1020.5 1021.0 +13.6
06 14.01 СВ 1 4000 м ясно +21.8 +11.0 50 +24 +35 комфорт 1021.5 1022.0
09 14.01 СВ 2 4000 м ясно +26.0 +10.3 37 +27 +37 жарко 1017.8 1018.0
12 14.01 СВ 2 4000 м ясно +25.8 +7.3 31 +26 +26 жарко 1016.5 1017.0 +27.0
15 14.01 СВ 2 4000 м ясно +21.0 +7.5 42 +23 +23 комфорт 1018.3 1018.0
18 14.01 штиль 0 4000 м ясно +18.0 +6.3 46 +18 +18 1019.2 1019.0
21 14.01 штиль 0 4000 м ясно +16.8 +5.7 48 +17 +17 1018.5 1019.0
00 15.01 штиль 0 4000 м ясно +14.4 +4.0 50 +14 +14 1018.2 1018.0
09 15.01 СВ 1 4000 м ясно +25.8 +10.0 37 +27 +37 жарко 1016.4 1016.0
12 15.01 штиль 0 4000 м ясно +28.2 +9.1 30 +28 +29 жарко 1014.4 1014.0 +30.4
15 15.01 штиль 0 4000 м ясно +22.0 +2.6 28 +22 +22 комфорт 1016.5 1017.0
18 15.01 штиль 0 4000 м ясно +18.0 +4.1 40 +18 +18 1017.5 1018.0
21 15.01 штиль 0 4000 м ясно +15.6 +4.0 46 +16 +16 1017.0 1017.0
00 16.01 штиль 0 4000 м ясно +14.6 +4.8 52 +14 +14 1016.9 1017.0

 

Местоположение метеостанции Бхудж (Гуджарат, Индия): широта 23.25 долгота 69.67 высота над уровнем моря 80 м.

В архиве по умолчанию представлена погода в Бхудже за последнюю неделю. Архивные данные за месяц целиком и за предыдущие месяцы, начиная с января 2011 года, Вы можете получить, выбрав интересующий диапазон дат из раскрывающегося списка и нажав кнопку "Ввод!".


*Определитесь, кто Вы:
робот инопланетянин человек

Внимание! Время в таблицах - всемирное. Для получения местного времени необходимо прибавить поправку, которая равна 5.5 ч.

Смотрите также архив погоды в соседних городах и на ближайших метеорологических станциях:

Погода в Кандле (Гуджарат, Индия) (47 км)
Погода в Нью-Кандле (Гуджарат, Индия) (63 км)
Погода в Мандви (Гуджарат, Индия) (63 км)
Погода в Налии (Гуджарат, Индия) (84 км)
Погода в Охе (Гуджарат, Индия) (103 км)
Погода в Дварке (Гуджарат, Индия) (115 км)
Погода в Раджкоте (Гуджарат, Индия) (155 км)
Погода в Бадине (Пакистан) (172 км)
Погода в Порбандаре (Гуджарат, Индия) (178 км)
Погода в Сурендранагаре (Гуджарат, Индия) (206 км)

Пояснения к столбцам:

Ветер - указаны скорость ветра в м/с - средняя за 10 мин, порывы в срок и между сроками (в фигурных скобках) и направление, откуда дует ветер: С - северный, СВ - северо-восточный, В - восточный, ЮВ - юго-восточный, Ю - южный, ЮЗ - юго-западный, З - западный, СЗ - северо-западный.
Видимость - горизонтальная дальность видимости в метрах или километрах. При видимости от 1 до 10 км при отсутствии осадков обычно наблюдается дымка, при ухудшении видимости до 1 км и менее - туман. В сухую погоду видимость может ухудшаться дымом, пылью или мглою.
Явления - указаны атмосферные явления, наблюдавшиеся в срок или в последний час перед сроком; фигурными скобками обозначены явления, наблюдавшиеся между сроками (за 1-3 часа до срока); квадратными скобками обозначены град или гололедные отложения с указанием их диаметра в мм.
Облачность - указаны через наклонную черту общая и нижняя облачность в баллах и высота нижней границы облаков в метрах; квадратными скобками обозначены формы облаков: Ci - перистые, Cs - перисто-слоистые, Cc - перисто-кучевые, Ac - высококучевые, As - высокослоистые, Sc - слоисто-кучевые, Ns - слоисто-дождевые, Cu - кучевые, Cb - кучево-дождевые. Подробнее классификацию облаков см. в Атласе облаков (PDF).
T - Температура воздуха - температура, измеренная на высоте 2 м над землей.
Td - Температура точки росы - температура, при понижении до которой содержащийся в воздухе водяной пар достигнет насыщения.
f - Относительная влажность воздуха - влажноcть воздуха, измеренная на высоте 2 м над землей.
Te - Эффективная температура - температура, которую ощущает одетый по сезону человек в тени. Характеристика душности погоды. При расчете учитывается влияние влажности воздуха и скорости ветра на теплоощущения человека.
Tes - Эффективная температура на солнце - температура, которую ощущает человек, с поправкой на солнечный нагрев. Характеристика знойности погоды. Зависит от высоты солнца над горизонтом, облачности и скорости ветра. Ночью, в пасмурную погоду, а также при ветре 12 м/с и более поправка равна нулю.
P - Атмосферное давление - приведенное к уровню моря атмосферное давление.
Po - Атмосферное давление - измеренное на уровне метеостанции атмосферное давление.
Tmin - Минимальная температура - минимум температуры воздуха на высоте 2 м над землей.
Tmax - Максимальная температура - максимум температуры воздуха на высоте 2 м над землей.
R - Количество осадков - Количество выпавших осадков за период времени, мм. При наведении курсора мыши на число - период времени, за который выпало указанное количество осадков.
R24 - Количество осадков - Количество выпавших осадков за 24 часа, мм.
S - Снежный покров - Высота снежного покрова, см. При наведении курсора мыши на число - состояние снежного покрова и степень покрытия местности в баллах.